User: anonymous   Login
Location: Unspecified
(0.0000°N, 0.0000°E)
Time: 07:45:43
(UTC+00:00)
Language:

STARLINK-36752 - Orbit

View from above orbital plane
View from above orbital plane
View from above satellite
View from above satellite

Ground track
Ground track

The orbit is defined by the following mean orbital elements,

1 67724U          26145.56167170 +.00000000 +00000-0 +81679-3 0 00004
2 67724  97.2845 199.0297 0001563 320.0270  40.0857 15.33428349    05
Epoch (UTC): 25 May 2026 13:28:48
Eccentricity: 0.0001563
inclination: 97.2845°
perigee height: 465 km
apogee height: 467 km
right ascension of ascending node: 199.0297°
argument of perigee: 320.0270°
revolutions per day: 15.33428349
mean anomaly at epoch: 40.0857°

The dashed part of the orbit path shows where the satellite is in the earth's shadow,  

DLR